Weather History for KCOQ - November, 2013

Change the Weather History Date:

Sunday, November 10, 2013

  Actual Average Record
Temperature  
Mean Temperature 32 °F -  
Max Temperature 39 °F 37 °F 57 °F (2010)
Min Temperature 23 °F 24 °F 17 °F (1996)
Degree Days  
Heating Degree Days 34    
Moisture  
Dew Point 26 °F    
Average Humidity 71    
Maximum Humidity 93    
Minimum Humidity 49    
Precipitation  
Precipitation 0.00 in - - ()
Sea Level Pressure  
Sea Level Pressure 30.14 in    
Wind  
Wind Speed 10 mph (WSW)    
Max Wind Speed 20 mph    
Max Gust Speed 28 mph    
Visibility 9 miles    
Events Snow    
Averages and records for this station are not official NWS values.
T = Trace of Precipitation, MM = Missing Value Source: NWS Daily Summary

Daily Weather History Graph

Daily Weather History Graph

Search for Another Location

Airport or City:

Trip Planner

Search our weather history database for the weather conditions in past years. The results will help you decide how hot, cold, wet, or windy it might be!

Date:

Astronomy

Nov. 10, 2013 Rise Set
Actual Time 7:05 AM CST 4:41 PM CST
Civil Twilight 6:33 AM CST 5:14 PM CST
Nautical Twilight 5:56 AM CST 5:50 PM CST
Astronomical Twilight 5:21 AM CST 6:26 PM CST
Moon 1:11 PM CST (11/10) No Moon Set
Length of Visible Light 10h 41m
Length of Day
9h 36m
First Quarter, 56% of the Moon is Illuminated
Nov 10
First Quarter
Nov 17
Full
Nov 25
Last Quarter
Dec 2
New
Dec 9
First Quarter

Hourly Weather History & Observations

Time (CST) Temp. Windchill Dew Point Humidity Pressure Visibility Wind Dir Wind Speed Gust Speed Precip Events Conditions
12:15 AM 35.6 °F 25.9 °F 28.4 °F 75% 30.09 in 10.0 mi WNW 16.1 mph 23.0 mph N/A   Overcast
12:36 AM 35.6 °F 27.5 °F 28.4 °F 75% 30.11 in 10.0 mi WNW 11.5 mph 19.6 mph N/A   Overcast
12:55 AM 35.6 °F 27.1 °F 28.4 °F 75% 30.11 in 10.0 mi WNW 12.7 mph 21.9 mph N/A   Overcast
1:16 AM 35.6 °F 27.5 °F 28.4 °F 75% 30.12 in 10.0 mi WNW 11.5 mph 18.4 mph N/A   Overcast
1:36 AM 35.6 °F 26.6 °F 28.4 °F 75% 30.13 in 10.0 mi WNW 13.8 mph - N/A   Overcast
1:55 AM 33.8 °F 26.4 °F 26.6 °F 75% 30.13 in 10.0 mi WNW 9.2 mph 18.4 mph N/A   Overcast
2:16 AM 33.8 °F 26.4 °F 28.4 °F 81% 30.14 in 10.0 mi WNW 9.2 mph - N/A   Overcast
2:36 AM 33.8 °F 27.0 °F 28.4 °F 81% 30.15 in 10.0 mi WNW 8.1 mph - N/A Snow Light Snow
2:55 AM 33.8 °F 26.4 °F 28.4 °F 81% 30.16 in 10.0 mi WNW 9.2 mph - N/A   Overcast
3:16 AM 33.8 °F 25.8 °F 28.4 °F 81% 30.16 in 10.0 mi WNW 10.4 mph 16.1 mph N/A   Overcast
3:36 AM 33.8 °F 26.4 °F 28.4 °F 81% 30.17 in 10.0 mi West 9.2 mph - N/A   Overcast
3:56 AM 33.8 °F 26.4 °F 28.4 °F 81% 30.17 in 10.0 mi WNW 9.2 mph - N/A   Overcast
4:16 AM 33.8 °F 26.4 °F 28.4 °F 81% 30.18 in 10.0 mi West 9.2 mph - N/A   Overcast
4:36 AM 33.8 °F 27.0 °F 28.4 °F 81% 30.19 in 10.0 mi West 8.1 mph - N/A   Overcast
4:56 AM 32.0 °F 24.2 °F 26.6 °F 80% 30.20 in 10.0 mi West 9.2 mph - N/A   Overcast
5:16 AM 30.2 °F 25.4 °F 26.6 °F 86% 30.20 in 10.0 mi WNW 4.6 mph - N/A   Scattered Clouds
5:36 AM 30.2 °F 24.3 °F 26.6 °F 86% 30.21 in 10.0 mi West 5.8 mph - N/A   Clear
5:56 AM 30.2 °F 24.3 °F 26.6 °F 86% 30.22 in 10.0 mi West 5.8 mph - N/A   Clear
6:16 AM 30.2 °F 25.4 °F 26.6 °F 86% 30.22 in 10.0 mi West 4.6 mph - N/A   Scattered Clouds
6:35 AM 32.0 °F 28.7 °F 26.6 °F 80% 30.22 in 10.0 mi WSW 3.5 mph - N/A   Mostly Cloudy
6:56 AM 30.2 °F 25.4 °F 26.6 °F 86% 30.22 in 10.0 mi West 4.6 mph - N/A   Overcast
7:16 AM 30.2 °F 26.7 °F 26.6 °F 86% 30.22 in 10.0 mi WSW 3.5 mph - N/A   Mostly Cloudy
7:35 AM 30.2 °F 26.7 °F 26.6 °F 86% 30.22 in 10.0 mi West 3.5 mph - N/A   Mostly Cloudy
7:56 AM 32.0 °F 25.6 °F 26.6 °F 80% 30.22 in 10.0 mi West 6.9 mph - N/A   Overcast
8:15 AM 32.0 °F 26.4 °F 26.6 °F 80% 30.23 in 10.0 mi West 5.8 mph 10.4 mph N/A   Overcast
8:36 AM 33.8 °F 27.7 °F 26.6 °F 75% 30.22 in 10.0 mi West 6.9 mph - N/A   Overcast
8:56 AM 33.8 °F 26.4 °F 24.8 °F 70% 30.23 in 10.0 mi West 9.2 mph - N/A   Overcast
9:15 AM 33.8 °F 26.4 °F 24.8 °F 70% 30.23 in 10.0 mi WSW 9.2 mph 16.1 mph N/A   Overcast
9:36 AM 33.8 °F 25.8 °F 24.8 °F 70% 30.22 in 10.0 mi WSW 10.4 mph - N/A   Scattered Clouds
9:56 AM 35.6 °F 28.0 °F 24.8 °F 65% 30.21 in 10.0 mi SW 10.4 mph 17.3 mph N/A   Clear
10:16 AM 35.6 °F 28.0 °F 24.8 °F 65% 30.22 in 10.0 mi WSW 10.4 mph 16.1 mph N/A   Clear
10:36 AM 35.6 °F 29.2 °F 24.8 °F 65% 30.21 in 10.0 mi WSW 8.1 mph 17.3 mph N/A   Clear
10:56 AM 37.4 °F 29.8 °F 24.8 °F 60% 30.20 in 10.0 mi WSW 11.5 mph 16.1 mph N/A   Clear
11:16 AM 37.4 °F 29.8 °F 24.8 °F 60% 30.20 in 10.0 mi WSW 11.5 mph 19.6 mph N/A   Clear
11:36 AM 37.4 °F 29.8 °F 24.8 °F 60% 30.18 in 10.0 mi SSW 11.5 mph - N/A   Clear
11:55 AM 37.4 °F 30.8 °F 24.8 °F 60% 30.18 in 10.0 mi WSW 9.2 mph - N/A   Clear
12:16 PM 37.4 °F 29.8 °F 24.8 °F 60% 30.17 in 10.0 mi SW 11.5 mph - N/A   Clear
12:36 PM 37.4 °F 30.3 °F 24.8 °F 60% 30.16 in 10.0 mi SW 10.4 mph - N/A   Clear
12:56 PM 37.4 °F 30.3 °F 24.8 °F 60% 30.15 in 10.0 mi SSW 10.4 mph - N/A   Clear
1:16 PM 39.2 °F 31.6 °F 23.0 °F 52% 30.14 in 10.0 mi SW 12.7 mph 20.7 mph N/A   Clear
1:36 PM 39.2 °F 31.2 °F 23.0 °F 52% 30.12 in 10.0 mi SW 13.8 mph 17.3 mph N/A   Clear
1:56 PM 39.2 °F 31.2 °F 23.0 °F 52% 30.12 in 10.0 mi SW 13.8 mph 18.4 mph N/A   Scattered Clouds
2:16 PM 39.2 °F 33.0 °F 23.0 °F 52% 30.11 in 10.0 mi SW 9.2 mph - N/A   Scattered Clouds
2:35 PM 39.2 °F 32.0 °F 21.2 °F 49% 30.11 in 10.0 mi SW 11.5 mph 17.3 mph N/A   Clear
2:56 PM 39.2 °F 31.2 °F 21.2 °F 49% 30.10 in 10.0 mi SW 13.8 mph 17.3 mph N/A   Clear
3:16 PM 39.2 °F 32.5 °F 21.2 °F 49% 30.10 in 10.0 mi WSW 10.4 mph - N/A   Clear
3:36 PM 39.2 °F 31.6 °F 21.2 °F 49% 30.10 in 10.0 mi WSW 12.7 mph 16.1 mph N/A   Clear
3:55 PM 37.4 °F 30.8 °F 23.0 °F 56% 30.09 in 10.0 mi WSW 9.2 mph - N/A   Clear
4:16 PM 37.4 °F 30.3 °F 23.0 °F 56% 30.09 in 10.0 mi WSW 10.4 mph - N/A   Clear
4:36 PM 37.4 °F 30.3 °F 23.0 °F 56% 30.08 in 10.0 mi SW 10.4 mph - N/A   Clear
4:55 PM 35.6 °F 29.2 °F 23.0 °F 60% 30.08 in 10.0 mi SW 8.1 mph - N/A   Clear
5:15 PM 35.6 °F 29.9 °F 24.8 °F 65% 30.07 in 10.0 mi SW 6.9 mph - N/A   Clear
5:36 PM 35.6 °F 28.6 °F 24.8 °F 65% 30.07 in 10.0 mi SW 9.2 mph - N/A   Scattered Clouds
5:55 PM 35.6 °F 28.6 °F 24.8 °F 65% 30.07 in 10.0 mi SW 9.2 mph - N/A   Mostly Cloudy
6:16 PM 35.6 °F 29.2 °F 24.8 °F 65% 30.06 in 10.0 mi SW 8.1 mph - N/A   Overcast
6:36 PM 35.6 °F 29.9 °F 24.8 °F 65% 30.06 in 10.0 mi SW 6.9 mph - N/A   Overcast
6:56 PM 35.6 °F 28.6 °F 24.8 °F 65% 30.06 in 10.0 mi SW 9.2 mph - N/A   Overcast
7:16 PM 35.6 °F 29.2 °F 24.8 °F 65% 30.06 in 10.0 mi WSW 8.1 mph - N/A   Overcast
7:36 PM 35.6 °F 28.6 °F 24.8 °F 65% 30.06 in 10.0 mi SW 9.2 mph - N/A   Overcast
7:56 PM 35.6 °F 28.6 °F 26.6 °F 70% 30.06 in 7.0 mi WSW 9.2 mph - N/A Snow Light Snow
8:16 PM 33.8 °F 25.8 °F 28.4 °F 81% 30.06 in 4.0 mi WSW 10.4 mph - N/A Snow Light Snow
8:36 PM 33.8 °F 27.0 °F 28.4 °F 81% 30.06 in 2.5 mi WSW 8.1 mph - N/A Snow Light Snow
8:56 PM 33.8 °F 25.8 °F 30.2 °F 87% 30.06 in 2.5 mi WSW 10.4 mph - N/A Snow Light Snow
9:16 PM 32.0 °F 25.6 °F 30.2 °F 93% 30.06 in 1.8 mi WSW 6.9 mph - N/A Snow Light Snow
9:36 PM 32.0 °F 25.6 °F 30.2 °F 93% 30.06 in 2.0 mi WSW 6.9 mph - N/A Snow Light Snow
9:56 PM 32.0 °F 24.8 °F 30.2 °F 93% 3.00 in 2.0 mi West 8.1 mph - N/A Snow Light Snow
10:15 PM 32.0 °F 22.5 °F 30.2 °F 93% - 3.0 mi NW 12.7 mph 20.7 mph N/A Snow Light Snow
10:36 PM 30.2 °F 20.8 °F 26.6 °F 86% 30.07 in 4.0 mi NW 11.5 mph - N/A Snow Light Snow
10:56 PM 28.4 °F 16.2 °F 24.8 °F 86% 30.08 in 4.0 mi NW 17.3 mph 20.7 mph N/A Snow Light Snow
11:16 PM 26.6 °F 13.4 °F 21.2 °F 80% 30.10 in 7.0 mi NW 18.4 mph 27.6 mph N/A Snow Light Snow
11:36 PM 24.8 °F 10.7 °F 12.2 °F 59% 30.11 in 10.0 mi NW 19.6 mph 26.5 mph N/A   Overcast
11:56 PM 23.0 °F 8.3 °F 14.0 °F 68% 30.11 in 10.0 mi NW 19.6 mph 25.3 mph N/A   Overcast